Location: Breitenfeld
(46.8500°N, 15.6333°E)
Time: 08:53:21
(UTC+00:00)

Cosmos 1959 Rocket - Pass Details

Date: 09 April 2020
Orbit: 946 x 998 km, 82.9° (Epoch: 23 May)

Event Time Altitude Azimuth Distance (km) Brightness Sun altitude
Rises 19:40:20 0° 351° (N) 3,715 8.2 -19.7°
Reaches altitude 10° 19:42:53 10° 351° (N) 2,757 7.5 -20.1°
Maximum altitude 19:49:14 90° 68° (ENE) 985 4.4 -20.9°
Enters shadow 19:52:41 29° 173° (S) 1,710 5.4 -21.4°
